Weather in Bishkek

Kyrgyzstan     42°52′47″N   74°36′51″E
temp.,
°C
wind,
m/s
gust,
m/s
humid.,
%
clouds,
%
prec.,
mm/h
press.,
hPa
HPBL,
m
12 august, fri
fri1200:00+21nw235426 0.1 101254
03:00+18s22640 0.1 101212
06:00+17se11620 0.1 101211
09:00+24ene11400 0.0 1013480
12:00+30n43270 0.0 10101899
15:00+32nnw43210 0.0 10082658
18:00+32nnw53190 0.0 10082571
21:00+24nw35310 0.0 100953
13 august, sat
sat1300:00+21wnw24380 0.0 101055
03:00+18sw12460 0.0 101021
06:00+17s22480 0.0 101113
09:00+25s12300 0.0 1011466
12:00+31nw21210 0.0 10091489
15:00+34nnw43170 0.0 10062725
18:00+34nne54170 0.0 10062965
21:00+27ne58280 0.0 1008194
14 august, sun
sun1400:00+22ese22370 0.0 100725
03:00+21ese22390 0.0 100712
06:00+19se11430 0.0 100711
09:00+26ene22280 0.0 1007417
12:00+34nw32170 0.0 10041416
15:00+38nnw53130 0.0 10022652
18:00+37nne64140 0.0 10022300
21:00+28ne47210 0.0 1004158
15 august, mon
mon1500:00+23se22290 0.0 100417
03:00+21ese11330 0.0 100311
06:00+20ese11360 0.0 100411
09:00+27nne11240 0.0 1005377
12:00+34nnw33160 0.0 10031367
15:00+37n65120 0.0 10012310
18:00+35nne86151 0.0 10021664
21:00+27ne36255 0.0 1004120
16 august, tue
tue1600:00+24e142895 0.0 100477
03:00+20sw22383 0.0 100521
06:00+18ssw11451 0.1 100612
09:00+25se12284 0.0 1007428
12:00+31nw232028 0.2 10051411
15:00+34n76120 0.1 10042128
18:00+32n751445 0.1 10051626
21:00+24nne472254 0.0 1007166